(109728) = 2001 RF58

Discovered at Socorro on 2001-09-12 by LINEAR.

Orbit

Orbit type: Main Belt

Note: WebGL enabled browser required.

epoch2024-03-31.0
epoch JD2460400.5
perihelion date2022-06-03.86821
perihelion JD2459734.36821
argument of perihelion (°)327.35981
ascending node (°)123.38408
inclination (°)4.95486
eccentricity0.1460449
perihelion distance (AU)1.9047594
Tisserand w.r.t. Jupiter3.6
ΔV w.r.t. Earth (km/sec)8.6
semimajor axis (AU)2.2305145
mean anomaly (°)197.08629
mean daily motion (°/day)0.29586680
aphelion distance (AU)2.556
period (years)3.33
P-vector [x]-0.01466585
P-vector [y]0.93491769
P-vector [z]0.35456145
Q-vector [x]-0.99728815
Q-vector [y]-0.03925350
Q-vector [z]0.06225357
absolute magnitude16.65
phase slope0.15
uncertainty0
referenceMPEC 2024-F28
observations used1698
oppositions17
arc length (days)10036
first opposition used1995
last opposition used2023
residual rms (arc-secs)0.57
perturbers coarse indicatorM-v
perturbers precise indicator003Ek
first observation date used1995-11-18.0
last observation date used2023-05-11.0
computer nameMPCLINUX
JD of orbit computation2456937.291216
perihelion JD uncertainty (days)5.3749E-05
argument of perihelion uncertainty (°)3.7621E-05
ascending node uncertainty (°)3.4774E-05
inclination uncertainty (°)3.1756E-06
eccentricity uncertainty 2.4292E-08
perihelion distance uncertainty (AU)5.4817E-08
Minimum Orbit Intersection Distances (in AU)
for orbit epoch: 2460400.5, reference: E2024-FB1
Mercury1.59831
Venus1.18726
Earth0.92397
Mars0.30893
Jupiter2.614
Saturn7.13857
Uranus16.2642
Neptune27.6658

Observations

1731 total observations over interval: 1995 11 18.45311 – 2023 05 11.347188
These data are available for download (format description).

Date (UT) J2000 RA J2000 Dec Magn Location Ref
1995 11 18.45311 09 19 38.44 +13 44 22.6 20.2 V 691 – Steward Observatory, Kitt Peak-Spacewatch MPC 48551
1995 11 18.47467 09 19 40.11 +13 44 17.0 20.4 V 691 – Steward Observatory, Kitt Peak-Spacewatch MPC 48551
1995 11 18.49940 09 19 41.99 +13 44 10.9 20.1 V 691 – Steward Observatory, Kitt Peak-Spacewatch MPC 48551
1995 11 28.47727 09 31 37.95 +13 07 28.4 20.0 V 691 – Steward Observatory, Kitt Peak-Spacewatch MPS 79900
1995 11 28.50379 09 31 39.60 +13 07 23.8 19.7 V 691 – Steward Observatory, Kitt Peak-Spacewatch MPS 79900
1995 11 28.53035 09 31 41.22 +13 07 18.5 19.9 V 691 – Steward Observatory, Kitt Peak-Spacewatch MPS 79900
1996 02 12.64704 09 22 14.01 +18 20 46.5   327 – Peking Observatory, Xinglong Station MPS 37993
1996 02 12.66544 09 22 12.83 +18 20 54.6 18.4 V 327 – Peking Observatory, Xinglong Station MPS 37993
1996 02 12.67848 09 22 12.06 +18 21 01.3   327 – Peking Observatory, Xinglong Station MPS 37993
1996 02 15.18624 09 19 47.71 +18 40 35.4 18.8 V 691 – Steward Observatory, Kitt Peak-Spacewatch MPS 37993
1996 02 15.20817 09 19 46.42 +18 40 45.5   691 – Steward Observatory, Kitt Peak-Spacewatch MPS 37993
1996 02 15.23006 09 19 45.10 +18 40 55.7   691 – Steward Observatory, Kitt Peak-Spacewatch MPS 37993
1998 11 11.37578 04 15 25.19 +12 01 47.8 18.4 R 699 – Lowell Observatory-LONEOS MPS 43774
1998 11 11.40082 04 15 23.77 +12 01 44.1   699 – Lowell Observatory-LONEOS MPS 43774
1998 11 11.42318 04 15 22.59 +12 01 41.1   699 – Lowell Observatory-LONEOS MPS 43774
1998 11 23.30331 04 03 35.74 +11 37 53.5 17.8 R 699 – Lowell Observatory-LONEOS MPS 49418
1998 11 23.32877 04 03 34.08 +11 37 51.1   699 – Lowell Observatory-LONEOS MPS 49418
1998 11 23.35423 04 03 32.36 +11 37 48.9   699 – Lowell Observatory-LONEOS MPS 49418
1998 12 16.23198 03 42 02.11 +11 46 53.9 18.4 R 699 – Lowell Observatory-LONEOS MPS 57167
1998 12 16.25749 03 42 01.05 +11 46 58.2   699 – Lowell Observatory-LONEOS MPS 57167
1998 12 16.28301 03 41 59.88 +11 47 01.9   699 – Lowell Observatory-LONEOS MPS 57167
2000 05 28.30455 15 43 50.41 -12 14 10.1 20.3 V 691 – Steward Observatory, Kitt Peak-Spacewatch MPS 43774
2000 05 28.32564 15 43 49.10 -12 14 08.1 20.1 V 691 – Steward Observatory, Kitt Peak-Spacewatch MPS 43774
2000 05 28.34682 15 43 47.75 -12 14 05.8 20.3 V 691 – Steward Observatory, Kitt Peak-Spacewatch MPS 43774
2001 08 25.33227 00 17 32.84 -04 41 42.9 19.7   704 – Lincoln Laboratory ETS, New Mexico MPS 37993
2001 08 25.34675 00 17 32.46 -04 41 48.6 19.6   704 – Lincoln Laboratory ETS, New Mexico MPS 37993
2001 08 25.36220 00 17 32.06 -04 41 56.0 19.5   704 – Lincoln Laboratory ETS, New Mexico MPS 37993
2001 09 12.33650 00 05 15.38 -07 03 23.2 19.1   704 – Lincoln Laboratory ETS, New Mexico MPS 36282
2001 09 12.35066 00 05 14.61 -07 03 30.5 19.6   704 – Lincoln Laboratory ETS, New Mexico MPS 36282
2001 09 12.36478 00 05 13.84 -07 03 38.0 19.6   704 – Lincoln Laboratory ETS, New Mexico MPS 36282
2001 09 12.37890 00 05 13.08 -07 03 44.8 19.5   704 – Lincoln Laboratory ETS, New Mexico MPS 36282
2001 09 12.39301 00 05 12.29 -07 03 51.7 19.5   704 – Lincoln Laboratory ETS, New Mexico MPS 36282
2001 09 16.37327 00 01 39.07 -07 37 16.2 18.5   704 – Lincoln Laboratory ETS, New Mexico MPS 36282
2001 09 16.38763 00 01 38.25 -07 37 23.1 19.1   704 – Lincoln Laboratory ETS, New Mexico MPS 36282
2001 09 16.40197 00 01 37.41 -07 37 30.5 19.0   704 – Lincoln Laboratory ETS, New Mexico MPS 36282
2001 09 16.41646 00 01 36.62 -07 37 36.4 19.2   704 – Lincoln Laboratory ETS, New Mexico MPS 36282
2001 09 19.17175 23 59 03.97 -08 00 24.9 19.2 R 699 – Lowell Observatory-LONEOS MPS 36282
2001 09 19.19049 23 59 02.76 -08 00 33.5   699 – Lowell Observatory-LONEOS MPS 36282
2001 09 19.20930 23 59 01.83 -08 00 42.4   699 – Lowell Observatory-LONEOS MPS 36282
2001 09 19.22821 23 59 00.68 -08 00 52.6   699 – Lowell Observatory-LONEOS MPS 36282
2001 09 19.25744 23 58 58.85 -08 01 07.0 19.3   704 – Lincoln Laboratory ETS, New Mexico MPS 36282
2001 09 19.27194 23 58 57.98 -08 01 13.7 19.1   704 – Lincoln Laboratory ETS, New Mexico MPS 36282
2001 09 19.28801 23 58 57.05 -08 01 21.5 19.1   704 – Lincoln Laboratory ETS, New Mexico MPS 36282
2001 09 19.30459 23 58 56.10 -08 01 30.8 19.3   704 – Lincoln Laboratory ETS, New Mexico MPS 36282
2001 09 19.31948 23 58 55.18 -08 01 37.0 19.1   704 – Lincoln Laboratory ETS, New Mexico MPS 36282
2001 09 21.25201 23 57 06.16 -08 17 15.0 19.0   704 – Lincoln Laboratory ETS, New Mexico MPS 36282
2001 09 21.26701 23 57 05.34 -08 17 21.7 19.1   704 – Lincoln Laboratory ETS, New Mexico MPS 36282
2001 09 21.28221 23 57 04.40 -08 17 28.7 19.5   704 – Lincoln Laboratory ETS, New Mexico MPS 36282
2001 09 21.29671 23 57 03.57 -08 17 36.1 18.8   704 – Lincoln Laboratory ETS, New Mexico MPS 36282
2001 09 21.31106 23 57 02.69 -08 17 42.9 19.1   704 – Lincoln Laboratory ETS, New Mexico MPS 36282
2001 09 25.25320 23 53 18.88 -08 48 19.9 18.9   704 – Lincoln Laboratory ETS, New Mexico MPS 49418
2001 09 25.25405 23 53 18.83 -08 48 20.6 18.7   704 – Lincoln Laboratory ETS, New Mexico MPS 49418
2001 09 25.26820 23 53 17.98 -08 48 26.7 18.8   704 – Lincoln Laboratory ETS, New Mexico MPS 49418
2001 09 25.26967 23 53 17.93 -08 48 27.9 19.2   704 – Lincoln Laboratory ETS, New Mexico MPS 49418
2001 09 25.28320 23 53 17.08 -08 48 33.9 19.3   704 – Lincoln Laboratory ETS, New Mexico MPS 49418
2001 09 25.28474 23 53 17.01 -08 48 34.7 19.0   704 – Lincoln Laboratory ETS, New Mexico MPS 49418
2001 09 25.29823 23 53 16.20 -08 48 40.6 19.0   704 – Lincoln Laboratory ETS, New Mexico MPS 49418
2001 09 25.30209 23 53 16.01 -08 48 42.7 19.2   704 – Lincoln Laboratory ETS, New Mexico MPS 49418
2001 09 25.31322 23 53 15.35 -08 48 47.2 19.6   704 – Lincoln Laboratory ETS, New Mexico MPS 49418
2001 10 10.27134 23 40 14.20 -10 20 46.3 19.4   644 – Palomar Mountain/NEAT MPS 37993
2001 10 10.29252 23 40 13.17 -10 20 52.1 19.0   644 – Palomar Mountain/NEAT MPS 37993
2001 10 10.31348 23 40 12.17 -10 20 57.8 19.3   644 – Palomar Mountain/NEAT MPS 37993
2001 10 11.20414 23 39 32.87 -10 24 53.4 19.3   704 – Lincoln Laboratory ETS, New Mexico MPS 37993
2001 10 11.22037 23 39 32.10 -10 24 58.8 19.5   704 – Lincoln Laboratory ETS, New Mexico MPS 37993
2001 10 11.23659 23 39 31.36 -10 25 00.8 19.6   704 – Lincoln Laboratory ETS, New Mexico MPS 37993
2001 10 11.25284 23 39 30.53 -10 25 06.5 20.0   704 – Lincoln Laboratory ETS, New Mexico MPS 37993
2001 10 24.15593 23 32 17.69 -10 59 04.0 19.5   644 – Palomar Mountain/NEAT MPS 43774
2001 10 24.17690 23 32 17.19 -10 59 05.2 19.6   644 – Palomar Mountain/NEAT MPS 43774
2001 10 24.19817 23 32 16.70 -10 59 06.0 19.5   644 – Palomar Mountain/NEAT MPS 43774
2003 03 22.27736 13 30 14.28 -00 46 49.2 19.4   644 – Palomar Mountain/NEAT MPS 75893
2003 03 22.36261 13 30 10.01 -00 46 11.9 19.3   644 – Palomar Mountain/NEAT MPS 75893
2003 03 22.42847 13 30 06.67 -00 45 42.9 19.3   644 – Palomar Mountain/NEAT MPS 75893
2003 03 28.41621 13 24 57.54 -00 01 39.5 19.7 V 691 – Steward Observatory, Kitt Peak-Spacewatch MPS 75893
2003 03 28.44334 13 24 56.01 -00 01 27.6 20.1 V 691 – Steward Observatory, Kitt Peak-Spacewatch MPS 75893
2003 03 28.46963 13 24 54.60 -00 01 15.2 19.8 V 691 – Steward Observatory, Kitt Peak-Spacewatch MPS 75893
2003 03 30.30947 13 23 13.02 +00 12 12.4 19.8   704 – Lincoln Laboratory ETS, New Mexico MPS 75893
2003 03 30.32169 13 23 12.27 +00 12 17.9 19.2   704 – Lincoln Laboratory ETS, New Mexico MPS 75893
2003 03 30.33554 13 23 11.43 +00 12 25.6 19.2   704 – Lincoln Laboratory ETS, New Mexico MPS 75893
2003 03 30.34803 13 23 10.68 +00 12 31.3 19.0   704 – Lincoln Laboratory ETS, New Mexico MPS 75893
2003 03 31.32859 13 22 15.47 +00 19 36.8 19.1 R 699 – Lowell Observatory-LONEOS MPS 75893
2003 03 31.34842 13 22 14.31 +00 19 46.1   699 – Lowell Observatory-LONEOS MPS 75893
2003 03 31.38569 13 22 12.05 +00 20 02.6   699 – Lowell Observatory-LONEOS MPS 75893
2003 03 31.40554 13 22 10.90 +00 20 11.1   699 – Lowell Observatory-LONEOS MPS 75893
2003 04 08.31297 13 14 30.02 +01 15 07.2 18.8   704 – Lincoln Laboratory ETS, New Mexico MPS 75893
2003 04 08.33128 13 14 28.83 +01 15 14.6 19.3   704 – Lincoln Laboratory ETS, New Mexico MPS 75893
